FW2602 Weather Reports


time (UTC)temp
C
wind
direction
speed
KPH
gust
KPH
rain 1hr
cm
rain 24hr
cm
rain mn
cm
humidity
%
barometer
mb
20260505235515 17 277 14.5 24.1 0.00 0.13 0.13 71 1006.3
20260505235015 17 262 11.3 22.5 0.00 0.13 0.13 71 1005.7
20260505234526 17 290 9.7 17.7 0.00 0.13 0.13 72 1005.5
20260505234015 17 262 11.3 20.9 0.00 0.13 0.13 71 1005.6
20260505233515 17 285 9.7 22.5 0.00 0.13 0.13 69 1005.4
20260505233019 17 316 11.3 22.5 0.00 0.13 0.13 70 1005.2
20260505232526 17 280 8.0 25.7 0.00 0.13 0.13 70 1005.2
20260505232010 17 205 11.3 25.7 0.00 0.13 0.13 70 1005.0
20260505231519 17 145 6.4 22.5 0.00 0.13 0.13 72 1005.0
20260505231002 17 278 8.0 17.7 0.00 0.13 0.13 72 1005.1
20260505230515 17 280 9.7 17.7 0.00 0.13 0.13 72 1005.1
20260505230042 17 255 9.7 20.9 0.00 0.13 0.13 72 1005.0
20260505225513 17 295 9.7 20.9 0.00 0.13 0.13 72 1004.9
20260505225015 17 260 6.4 16.1 0.00 0.13 0.13 72 1004.8
20260505224528 17 283 8.0 14.5 0.03 0.13 0.13 73 1004.8
20260505224014 17 273 8.0 14.5 0.03 0.13 0.13 72 1004.9
20260505223527 17 289 8.0 19.3 0.03 0.13 0.13 74 1004.8
20260505223010 16 302 8.0 19.3 0.05 0.13 0.13 75 1004.7
20260505222523 16 280 11.3 17.7 0.05 0.13 0.13 76 1004.8
20260505222009 16 280 11.3 17.7 0.05 0.13 0.13 77 1004.8
20260505221520 16 290 8.0 17.7 0.05 0.13 0.13 78 1004.9
20260505221010 15 305 8.0 20.9 0.05 0.13 0.13 81 1005.1
20260505220518 15 294 4.8 20.9 0.08 0.13 0.13 83 1005.4
20260505220004 15 280 12.9 25.7 0.08 0.13 0.13 83 1005.7
20260505215516 15 289 17.7 25.7 0.08 0.13 0.13 83 1005.7
20260505215021 15 274 12.9 27.4 0.08 0.13 0.13 84 1005.8
20260505214511 16 289 14.5 38.6 0.05 0.10 0.10 82 1005.9
20260505214017 16 294 16.1 38.6 0.05 0.10 0.10 81 1005.8
20260505213510 16 266 16.1 35.4 0.05 0.10 0.10 81 1006.1
20260505213016 16 307 20.9 35.4 0.03 0.08 0.08 81 1006.3
20260505212510 16 269 20.9 32.2 0.03 0.08 0.08 81 1006.1
20260505212016 16 298 19.3 32.2 0.03 0.08 0.08 80 1005.7
20260505211528 16 293 17.7 27.4 0.03 0.08 0.08 79 1005.5
20260505211014 17 269 16.1 33.8 0.03 0.08 0.08 75 1005.4
20260505210524 18 245 17.7 33.8 0.00 0.05 0.05 69 1005.6
20260505210015 20 314 4.8 22.5 0.00 0.05 0.05 61 1004.8
20260505205525 21 297 3.2 30.6 0.00 0.05 0.05 52 1004.5
20260505205014 23 273 6.4 17.7 0.00 0.05 0.05 38 1003.8
20260505204522 23 304 9.7 37.0 0.00 0.05 0.05 37 1003.4
20260505204010 23 296 11.3 35.4 0.00 0.05 0.05 37 1003.2
20260505203519 23 293 9.7 27.4 0.00 0.05 0.05 37 1003.2
20260505203002 23 288 9.7 33.8 0.00 0.05 0.05 37 1003.1
20260505202513 23 266 17.7 37.0 0.00 0.05 0.05 36 1003.0
20260505202021 23 274 24.1 37.0 0.00 0.05 0.05 37 1003.0
20260505201514 23 285 8.0 22.5 0.00 0.05 0.05 44 1002.9
20260505201016 23 292 12.9 22.5 0.00 0.05 0.05 42 1002.8
20260505200528 23 290 9.7 20.9 0.00 0.05 0.05 42 1002.6
20260505200012 23 301 12.9 24.1 0.00 0.05 0.05 42 1002.5
20260505195523 23 295 14.5 29.0 0.00 0.05 0.05 43 1002.5
20260505195006 23 283 16.1 29.0 0.00 0.05 0.05 45 1002.6
20260505194517 23 298 14.5 24.1 0.00 0.05 0.05 45 1002.6
20260505194011 22 285 11.3 32.2 0.00 0.05 0.05 45 1002.8
20260505193524 22 302 17.7 32.2 0.00 0.05 0.05 51 1003.0
20260505193009 21 290 14.5 33.8 0.00 0.05 0.05 50 1003.2
20260505192523 21 259 16.1 32.2 0.00 0.05 0.05 48 1003.4
20260505192004 21 300 17.7 38.6 0.00 0.05 0.05 49 1003.5
20260505191516 22 295 25.7 54.7 0.00 0.05 0.05 46 1003.5
20260505191020 22 280 32.2 54.7 0.00 0.05 0.05 40 1003.5
20260505190510 23 316 20.9 43.5 0.00 0.05 0.05 40 1003.5
20260505190017 23 295 20.9 46.7 0.00 0.05 0.05 40 1003.2
20260505185526 23 314 22.5 46.7 0.00 0.05 0.05 39 1003.2
20260505185012 23 298 20.9 41.8 0.00 0.05 0.05 39 1003.3
20260505184523 23 271 16.1 33.8 0.00 0.05 0.05 40 1003.3
20260505184012 23 222 19.3 38.6 0.00 0.05 0.05 39 1003.3
20260505183522 24 236 17.7 46.7 0.00 0.05 0.05 40 1003.2
20260505183010 23 293 25.7 51.5 0.00 0.05 0.05 38 1003.3
20260505182519 23 280 24.1 51.5 0.00 0.05 0.05 40 1003.2
20260505182005 23 307 16.1 32.2 0.00 0.05 0.05 40 1003.3
20260505181515 23 280 17.7 38.6 0.00 0.05 0.05 41 1003.3
20260505181020 23 221 19.3 38.6 0.00 0.05 0.05 41 1003.6
20260505180510 23 308 12.9 40.2 0.00 0.05 0.05 40 1003.3
20260505180036 23 291 14.5 40.2 0.00 0.05 0.05 40 1003.5
20260505175525 23 317 17.7 38.6 0.00 0.05 0.05 40 1003.5
20260505175011 23 249 20.9 53.1 0.00 0.05 0.05 40 1003.5
20260505174519 23 278 29.0 53.1 0.00 0.05 0.05 39 1003.4
20260505174004 23 256 20.9 40.2 0.00 0.05 0.05 39 1003.6
20260505173517 23 294 12.9 46.7 0.00 0.05 0.05 40 1003.6
20260505173017 23 297 27.4 46.7 0.00 0.05 0.05 39 1003.6
20260505172515 23 288 17.7 41.8 0.00 0.05 0.05 41 1003.9
20260505172019 23 310 25.7 41.8 0.00 0.05 0.05 43 1003.8
20260505171507 23 287 17.7 41.8 0.00 0.05 0.05 41 1003.9
20260505171016 23 293 19.3 38.6 0.00 0.05 0.05 41 1004.0
20260505170524 23 297 22.5 43.5 0.00 0.05 0.05 39 1004.2
20260505170013 23 248 20.9 43.5 0.00 0.05 0.05 40 1004.2
20260505165524 23 261 16.1 38.6 0.00 0.05 0.05 42 1004.4
20260505165014 23 277 19.3 40.2 0.00 0.05 0.05 43 1004.3
20260505164525 23 285 24.1 41.8 0.00 0.05 0.05 42 1004.5
20260505164008 23 298 22.5 45.1 0.00 0.05 0.05 44 1004.4
20260505163520 23 300 20.9 45.1 0.00 0.05 0.05 43 1004.4
20260505163004 23 290 29.0 45.1 0.00 0.05 0.05 40 1004.4
20260505162515 23 190 19.3 45.1 0.00 0.05 0.05 40 1004.6
20260505162020 23 217 24.1 45.1 0.00 0.05 0.05 40 1004.5
20260505161511 23 293 22.5 46.7 0.00 0.05 0.05 42 1004.5
20260505161018 22 277 22.5 54.7 0.00 0.05 0.05 42 1004.3
20260505160510 22 288 30.6 54.7 0.00 0.05 0.05 41 1004.6
20260505153010 22 280 24.1 49.9 0.00 0.05 0.05 47 1004.9
20260505152520 22 302 24.1 45.1 0.00 0.05 0.05 49 1004.9
20260505152018 22 300 20.9 48.3 0.00 0.05 0.05 49 1005.1
20260505151510 21 290 25.7 45.1 0.00 0.05 0.05 49 1005.1
20260505151015 21 276 30.6 45.1 0.00 0.05 0.05 49 1005.1
20260505150527 21 307 16.1 43.5 0.00 0.05 0.05 50 1004.9
20260505140528 18 293 12.9 32.2 0.00 0.05 0.05 57 1005.5
20260505125018 18 291 17.7 32.2 0.00 0.05 0.05 60 1005.9
20260505124513 18 295 19.3 35.4 0.00 0.05 0.05 59 1005.8
20260505124014 18 274 22.5 37.0 0.00 0.05 0.05 59 1005.9
20260505123521 17 274 17.7 37.0 0.00 0.05 0.05 59 1006.0
20260505123022 17 293 14.5 29.0 0.00 0.05 0.05 60 1006.0
20260505122520 17 239 17.7 33.8 0.00 0.05 0.05 60 1006.0
20260505122018 17 298 20.9 38.6 0.00 0.05 0.05 60 1006.0
20260505121510 17 253 9.7 37.0 0.00 0.05 0.05 60 1006.1
20260505121015 17 305 12.9 29.0 0.00 0.05 0.05 61 1006.1
20260505120517 17 255 12.9 29.0 0.00 0.05 0.05 61 1006.0
20260505120023 17 295 17.7 35.4 0.00 0.05 0.05 62 1006.0
20260505115515 17 278 12.9 35.4 0.00 0.05 0.05 62 1006.1
20260505115013 16 300 12.9 32.2 0.00 0.05 0.05 63 1006.1
20260505114513 16 298 14.5 30.6 0.00 0.05 0.05 63 1005.8
20260505114012 16 305 9.7 32.2 0.00 0.05 0.05 63 1006.1
20260505113512 16 294 12.9 32.2 0.00 0.05 0.05 63 1006.0
20260505113010 16 171 12.9 24.1 0.00 0.05 0.05 64 1006.1
20260505112513 16 278 12.9 27.4 0.00 0.05 0.05 64 1006.0
20260505112011 16 266 14.5 27.4 0.00 0.05 0.05 64 1005.9
20260505111517 16 302 8.0 25.7 0.00 0.05 0.05 64 1005.9
20260505111011 15 307 9.7 25.7 0.00 0.05 0.05 65 1005.8
20260505110507 15 250 9.7 24.1 0.00 0.05 0.05 65 1005.7
20260505102006 15 228 8.0 20.9 0.00 0.05 0.05 68 1005.4
20260505101518 14 294 8.0 20.9 0.03 0.05 0.05 69 1005.4
20260505101005 14 330 4.8 14.5 0.03 0.05 0.05 69 1005.5
20260505100505 14 312 3.2 14.5 0.03 0.05 0.05 69 1005.4
20260505100019 14 283 1.6 12.9 0.05 0.05 0.05 70 1005.5
20260505095503 13 281 3.2 9.7 0.05 0.05 0.05 72 1005.4
20260505095004 13 132 0.0 4.8 0.05 0.05 0.05 73 1005.4
20260505094504 13 46 0.0 4.8 0.05 0.05 0.05 72 1005.3
20260505094001 14 109 0.0 9.7 0.05 0.05 0.05 70 1005.5
20260505093603 15 263 0.0 11.3 0.05 0.05 0.05 68 1005.6
20260505093105 15 318 3.2 16.1 0.05 0.05 0.05 66 1005.9
20260505092601 15 293 6.4 16.1 0.05 0.05 0.05 67 1006.0
20260505092059 15 301 6.4 25.7 0.05 0.05 0.05 66 1006.0
20260505091557 15 298 12.9 25.7 0.03 0.03 0.03 65 1005.9
20260505091055 15 266 9.7 22.5 0.03 0.03 0.03 63 1006.0
20260505090554 16 284 11.3 24.1 0.03 0.03 0.03 60 1005.8
20260505090053 16 63 9.7 24.1 0.00 0.00 0.00 57 1005.3
20260505085552 16 287 9.7 24.1 0.00 0.00 0.00 58 1005.1
20260505085052 16 285 9.7 24.1 0.00 0.00 0.00 57 1005.2
20260505084551 16 295 9.7 20.9 0.00 0.00 0.00 57 1005.3
20260505084051 15 340 9.7 19.3 0.00 0.00 0.00 57 1005.2
20260505083549 15 316 11.3 20.9 0.00 0.00 0.00 57 1005.4
20260505083049 16 302 6.4 20.9 0.00 0.00 0.00 57 1005.2
20260505082548 16 280 11.3 25.7 0.00 0.00 0.00 57 1005.4
20260505082048 16 283 12.9 25.7 0.00 0.00 0.00 56 1005.4
20260505081600 16 294 9.7 27.4 0.00 0.00 0.00 56 1005.6
20260505081047 16 315 11.3 20.9 0.00 0.00 0.00 56 1005.4
20260505080549 16 266 9.7 22.5 0.00 0.00 0.00 56 1005.4
20260505080056 16 297 11.3 22.5 0.00 0.00 0.00 56 1005.5
20260505075545 16 259 11.3 20.9 0.00 0.00 0.00 56 1005.7
20260505075045 16 291 8.0 22.5 0.00 0.00 0.00 55 1005.7
20260505074543 16 291 12.9 22.5 0.00 0.00 0.00 55 1005.5
20260505074044 16 289 6.4 25.7 0.00 0.00 0.00 55 1005.7
20260505073541 16 302 9.7 27.4 0.00 0.00 0.00 55 1005.6
20260505073041 16 285 8.0 27.4 0.00 0.00 0.00 55 1005.4
20260505072540 16 300 6.4 27.4 0.00 0.00 0.00 54 1005.4
20260505072038 16 330 6.4 24.1 0.00 0.00 0.00 54 1005.5
20260505071548 15 322 3.2 19.3 0.00 0.00 0.00 54 1005.5
20260505071038 16 257 6.4 14.5 0.00 0.00 0.00 54 1005.5
20260505070537 16 297 4.8 22.5 0.00 0.00 0.00 54 1005.5
20260505070036 16 242 6.4 22.5 0.00 0.00 0.00 54 1005.5
20260505065535 16 285 9.7 19.3 0.00 0.00 0.00 53 1005.7
20260505065034 16 289 4.8 30.6 0.00 0.00 0.00 53 1005.7
20260505064533 16 322 8.0 30.6 0.00 0.00 0.00 53 1005.7
20260505064036 16 284 8.0 17.7 0.00 0.00 0.00 53 1005.8
20260505063533 16 274 8.0 27.4 0.00 0.00 0.00 53 1005.8
20260505063038 16 256 8.0 27.4 0.00 0.00 0.00 53 1005.7
20260505062532 16 167 9.7 22.5 0.00 0.00 0.00 53 1005.8
20260505062029 16 264 6.4 24.1 0.00 0.00 0.00 52 1005.7
20260505061534 16 322 9.7 24.1 0.00 0.00 0.00 52 1005.7
20260505061028 16 323 8.0 17.7 0.00 0.00 0.00 52 1005.8
20260505060528 16 319 9.7 30.6 0.00 0.00 0.00 52 1005.7
20260505060027 16 349 6.4 30.6 0.00 0.00 0.00 51 1005.6
20260505055526 16 240 6.4 22.5 0.00 0.00 0.00 51 1005.6
20260505055026 16 217 6.4 20.9 0.00 0.00 0.00 52 1005.9
20260505054526 16 323 4.8 22.5 0.00 0.00 0.00 51 1005.8
20260505054026 16 245 6.4 20.9 0.00 0.00 0.00 51 1005.9
20260505053523 16 326 8.0 20.9 0.00 0.00 0.00 52 1005.8
20260505053035 16 263 8.0 27.4 0.00 0.00 0.00 51 1005.7
20260505052526 16 291 9.7 27.4 0.00 0.00 0.00 51 1005.9
20260505052026 16 304 6.4 17.7 0.00 0.00 0.00 52 1006.0
20260505051536 16 277 4.8 14.5 0.00 0.00 0.00 52 1006.1
20260505051024 16 166 4.8 16.1 0.00 0.00 0.00 52 1006.0
20260505050520 16 269 4.8 16.1 0.00 0.00 0.00 52 1006.0
20260505041521 15 137 4.8 12.9 0.00 0.00 0.00 51 1006.0
20260505041020 16 326 1.6 17.7 0.00 0.00 0.00 51 1006.0
20260505040515 16 340 4.8 12.9 0.00 0.00 0.00 51 1006.0
20260505040014 16 298 4.8 12.9 0.00 0.00 0.00 50 1005.9
20260505035517 16 49 4.8 17.7 0.00 0.00 0.00 50 1005.9
20260505035012 16 291 6.4 17.7 0.00 0.00 0.00 50 1005.9
20260505034512 16 111 4.8 17.7 0.00 0.00 0.00 50 1005.9
20260505034015 16 308 6.4 17.7 0.00 0.00 0.00 49 1005.9
20260505033513 16 42 4.8 19.3 0.00 0.00 0.00 49 1006.0
20260505033013 16 304 8.0 19.3 0.00 0.00 0.00 49 1006.1
20260505032512 16 297 6.4 19.3 0.00 0.00 0.00 49 1006.1
20260505032014 16 290 8.0 19.3 0.00 0.00 0.00 48 1006.2
20260505031512 16 353 6.4 17.7 0.00 0.00 0.00 48 1006.2
20260505031018 16 309 6.4 19.3 0.00 0.00 0.00 48 1006.1
20260505030513 16 162 4.8 19.3 0.00 0.00 0.00 47 1006.1
20260505030012 16 318 3.2 14.5 0.00 0.00 0.00 47 1006.1
20260505025611 16 339 3.2 17.7 0.00 0.00 0.00 47 1006.1
20260505025011 16 249 4.8 17.7 0.00 0.00 0.00 47 1006.1
20260505024510 16 68 4.8 14.5 0.00 0.00 0.00 46 1006.1
20260505024009 16 289 4.8 14.5 0.00 0.00 0.00 46 1006.2
20260505023510 16 311 4.8 16.1 0.00 0.00 0.00 45 1006.3
20260505023014 16 73 4.8 16.1 0.00 0.00 0.00 46 1006.3
20260505022510 16 306 6.4 14.5 0.00 0.00 0.00 46 1006.3
20260505022008 16 284 4.8 14.5 0.00 0.00 0.00 45 1006.4
20260505021508 16 308 1.6 12.9 0.00 0.00 0.00 45 1006.3
20260505021012 16 289 3.2 12.9 0.00 0.00 0.00 45 1006.4
20260505020509 16 277 3.2 14.5 0.00 0.00 0.00 45 1006.5
20260505020008 16 166 3.2 14.5 0.00 0.00 0.00 45 1006.5
20260505015508 16 292 1.6 11.3 0.00 0.00 0.00 45 1006.5
20260505015007 16 309 3.2 12.9 0.00 0.00 0.00 45 1006.5
20260505014506 16 302 4.8 12.9 0.00 0.00 0.00 45 1006.5
20260505014006 16 273 1.6 11.3 0.00 0.00 0.00 45 1006.6
20260505013507 16 305 3.2 12.9 0.00 0.00 0.00 45 1006.5
20260505013007 16 248 4.8 12.9 0.00 0.00 0.00 44 1006.5
20260505012508 16 296 1.6 11.3 0.00 0.00 0.00 45 1006.6
20260505012007 16 264 3.2 14.5 0.00 0.00 0.00 44 1006.6
20260505011506 16 301 1.6 9.7 0.00 0.00 0.00 45 1006.6
20260505011008 17 306 3.2 9.7 0.00 0.00 0.00 44 1006.6
20260505010506 17 283 1.6 9.7 0.00 0.00 0.00 44 1006.5
20260505010015 17 259 3.2 9.7 0.00 0.00 0.00 44 1006.4
20260505005506 17 325 1.6 11.3 0.00 0.00 0.00 44 1006.3
20260505005006 17 235 1.6 19.3 0.00 0.00 0.00 44 1006.2
20260505004506 17 293 4.8 19.3 0.00 0.00 0.00 44 1006.2
20260505004009 17 256 3.2 11.3 0.00 0.00 0.00 44 1006.1
20260505003514 17 298 4.8 11.3 0.00 0.00 0.00 43 1006.2
20260505003018 17 335 3.2 12.9 0.00 0.00 0.00 44 1006.1
20260505002509 17 315 0.0 12.9 0.00 0.00 0.00 44 1006.2
20260505002010 17 296 1.6 12.9 0.00 0.00 0.00 43 1006.1
20260505001523 17 115 3.2 14.5 0.00 0.00 0.00 43 1006.0
20260505001011 17 300 1.6 14.5 0.00 0.00 0.00 42 1006.1
20260505000518 17 39 1.6 9.7 0.00 0.00 0.00 42 1006.0
20260505000001 17 30 3.2 9.7 0.00 0.00 0.00 41 1006.0